Wind_Speed
29 27 26 24 23 21 18 16 13 10 9 9 9 10 11 12 12 13 13 13 12 12 13 12 12 13 12 12 12 14 15 15 16 16 17 19 21 23 24 24 26 27 27 28 28 29 31 31 30 30 29 31 35 34 32 33 32 31 30 29 29 31 29 23 14 14 25 33 33 32 33 35 39 42 41 41 40 35 33 35 39 43 41 37 35
29 28 27 25 23 20 17 15 12 10 9 9 9 10 10 11 12 13 13 12 11 12 13 12 12 12 11 12 13 14 15 16 17 17 17 19 21 22 22 23 25 27 28 30 30 29 29 29 29 30 30 33 35 35 34 34 33 33 31 27 27 29 26 22 17 13 17 25 29 31 34 35 35 37 40 41 38 34 31 31 35 39 39 35 36
31 29 28 26 23 20 17 14 12 10 9 9 9 9 10 11 12 12 12 11 11 11 12 12 11 11 11 12 13 14 15 15 16 16 16 19 21 22 22 23 25 28 29 30 30 30 29 30 31 31 31 33 35 34 34 35 35 35 33 28 26 28 28 27 24 18 16 23 31 35 35 35 34 34 38 40 35 28 28 30 32 35 33 31 32
32 30 28 26 23 20 17 14 12 11 9 9 8 9 10 11 11 10 11 11 11 11 11 12 12 12 13 13 13 14 15 15 15 16 16 18 20 22 22 23 25 27 28 30 30 30 30 32 33 32 32 33 34 33 33 34 34 33 32 30 29 30 31 31 31 28 24 22 29 37 36 33 34 37 40 40 33 26 26 29 31 31 30 29 31
32 31 28 26 23 20 17 15 13 11 9 8 8 9 9 10 10 10 10 11 12 12 13 14 13 13 13 13 14 14 15 16 16 17 17 18 20 22 22 23 25 26 27 29 29 29 30 32 32 31 31 33 34 32 32 33 33 33 32 30 29 30 30 30 32 35 33 26 27 34 35 31 34 41 42 38 34 28 25 25 28 30 29 28 30
33 31 29 26 23 20 18 15 13 10 9 8 8 8 9 9 10 10 11 12 13 14 15 15 14 13 14 14 14 15 15 16 17 17 18 19 20 21 22 23 25 26 28 29 29 30 30 31 31 31 31 32 33 32 32 32 32 31 31 30 29 30 30 32 33 35 36 33 30 31 31 32 34 37 38 35 31 25 19 19 24 27 27 27 29
33 31 28 25 23 21 18 16 13 11 9 8 8 8 9 9 11 11 12 12 13 14 15 16 15 14 14 15 15 15 15 15 17 18 18 20 21 22 23 24 26 27 29 30 31 32 33 33 32 31 31 32 33 33 32 32 32 32 31 30 30 30 31 32 33 34 33 31 29 27 29 33 34 32 32 30 23 17 14 15 18 21 23 24 26
33 30 28 26 23 21 18 16 13 11 9 8 8 8 8 9 10 11 11 12 13 14 15 15 15 14 14 15 15 15 15 16 16 17 18 19 20 22 23 25 27 28 29 30 32 33 34 35 35 34 34 34 34 34 33 32 31 30 31 30 30 30 30 30 29 30 30 27 26 26 27 29 27 23 22 19 12 8 9 12 15 17 18 20 23
33 30 28 26 24 21 18 16 13 11 10 8 7 8 8 8 9 9 10 11 12 14 14 14 14 14 14 14 14 14 15 15 15 16 17 19 20 22 24 24 26 27 28 29 30 31 31 33 34 35 36 37 37 37 37 36 34 32 31 30 30 30 29 29 28 28 27 22 20 22 20 19 18 15 14 11 5 3 7 12 14 17 19 21 23
33 31 28 25 24 21 18 16 14 11 9 8 7 7 7 7 7 8 9 10 12 13 13 13 12 13 13 14 14 14 14 16 16 17 20 22 24 25 26 27 26 28 30 32 33 33 33 33 33 35 37 39 40 40 40 40 39 38 37 34 32 31 28 28 27 27 24 18 16 18 14 12 15 15 11 8 4 4 7 9 11 16 18 16 18
32 30 27 25 23 21 18 16 13 11 10 8 8 7 6 6 5 7 8 10 11 12 12 11 11 12 13 13 14 15 16 17 18 20 23 24 26 27 28 29 27 27 30 33 35 35 35 35 35 35 36 36 37 38 39 41 41 41 42 41 40 37 34 30 29 29 27 21 20 20 13 11 19 22 15 10 8 6 6 6 8 12 11 9 11
32 29 27 25 23 21 18 16 13 11 10 9 8 6 5 4 4 6 7 9 10 10 10 10 11 12 12 14 16 16 18 20 20 22 24 25 26 27 29 29 27 27 29 33 35 35 35 35 35 34 35 34 34 35 36 38 39 40 41 41 42 43 41 39 35 32 30 25 23 23 20 17 22 26 22 15 11 9 6 6 7 9 8 7 7
31 28 26 25 23 20 18 16 13 12 10 9 7 5 4 3 3 5 6 7 8 9 10 10 11 12 12 14 16 17 20 22 22 23 25 26 27 28 29 28 27 28 31 33 34 35 34 35 35 34 34 34 34 35 35 35 36 37 38 39 40 41 42 43 42 40 38 33 28 29 30 26 24 27 26 18 11 11 9 7 9 11 10 9 10
30 28 26 25 23 20 18 16 14 12 10 8 6 4 2 2 3 4 5 6 7 9 10 10 11 13 14 15 17 19 22 23 23 25 26 27 28 28 28 27 26 29 32 33 33 34 34 35 35 35 34 33 32 33 35 36 36 36 36 36 37 38 38 40 42 42 42 41 37 36 38 36 32 32 32 24 16 14 11 9 11 14 15 17 21
30 28 26 24 22 20 18 16 14 12 10 8 6 3 2 2 3 4 5 6 7 8 10 11 13 15 17 18 19 21 24 24 24 26 27 27 29 28 26 25 25 28 31 32 33 34 34 35 36 36 36 35 34 33 34 34 33 33 34 33 34 37 37 38 39 39 39 40 39 38 39 41 40 37 36 32 25 21 17 14 16 18 19 21 23
29 27 26 24 23 21 19 17 15 12 10 8 5 3 1 1 2 3 5 6 8 9 10 12 14 16 19 20 21 24 27 25 24 26 27 28 29 26 23 23 25 27 29 32 33 35 35 34 35 36 36 36 35 35 35 35 34 33 33 31 31 33 36 37 39 40 41 40 40 40 40 41 42 40 38 36 32 30 24 18 18 18 14 12 13
28 27 27 26 24 22 19 17 15 13 10 8 5 2 1 1 2 3 5 7 8 10 11 13 15 17 20 22 23 25 26 25 25 26 27 28 29 25 23 25 27 28 30 32 33 35 35 34 35 36 36 36 36 36 36 36 35 35 34 32 31 32 33 35 38 41 43 42 43 44 45 46 46 43 43 42 40 36 26 16 14 13 8 6 7
29 28 28 27 24 22 20 17 15 13 10 7 4 2 1 1 2 3 5 7 9 11 12 14 16 18 20 24 24 23 25 25 26 27 27 29 28 26 25 27 29 30 31 33 34 34 35 36 36 36 37 37 37 37 37 36 36 36 35 33 32 31 31 32 34 37 37 37 39 43 46 48 47 47 47 46 43 38 27 18 16 11 6 5 6
31 30 28 27 24 22 19 16 14 12 9 6 4 2 0 1 2 3 5 7 9 11 12 14 18 21 22 24 23 21 23 25 25 26 28 29 29 27 26 27 27 28 30 32 34 34 34 36 36 36 37 38 38 38 37 37 36 34 32 30 28 27 29 30 31 31 31 31 34 37 39 38 38 41 46 45 41 37 31 26 23 17 10 6 6
32 30 28 26 23 21 18 16 13 11 8 6 3 1 1 2 3 4 5 7 9 11 12 15 20 21 20 19 19 20 22 25 26 27 28 30 30 30 30 28 25 23 25 28 32 33 35 35 35 35 36 37 38 38 37 37 37 35 33 30 27 27 30 32 31 30 29 30 31 31 31 31 30 31 33 35 34 32 31 30 29 25 19 12 10
31 29 27 25 23 20 17 14 12 9 7 5 3 2 1 2 3 5 6 8 10 13 15 17 17 16 16 18 19 20 21 24 27 28 29 30 31 32 33 30 26 26 28 31 34 35 36 35 34 34 35 37 38 38 39 39 39 37 35 34 33 33 33 35 35 33 30 30 30 30 29 29 28 26 25 26 27 27 28 30 30 29 27 22 16
31 29 26 24 22 18 15 13 10 8 6 4 3 1 1 2 3 5 7 9 12 14 14 13 13 15 18 19 19 20 21 23 27 29 30 31 31 32 33 33 32 33 34 34 33 35 36 36 35 35 35 37 38 39 40 41 40 38 37 38 39 40 39 38 38 34 29 27 27 27 26 25 23 22 23 25 25 25 27 30 30 30 32 31 27
31 28 26 24 20 17 15 12 9 7 5 4 3 1 1 2 4 6 7 9 11 11 11 11 14 17 18 18 18 20 21 23 26 28 30 31 31 32 34 35 35 34 32 32 33 35 36 35 35 37 38 39 40 40 41 41 40 39 39 39 40 41 39 36 34 31 28 27 25 24 24 23 21 20 21 22 23 25 28 30 31 32 33 33 34
31 28 27 24 20 18 15 12 9 7 5 4 3 2 0 2 4 6 8 8 7 8 10 12 15 17 17 18 19 20 21 23 25 27 29 31 32 33 34 35 35 34 32 32 33 34 35 36 38 41 42 41 40 41 41 41 40 39 39 39 40 39 36 33 31 28 26 25 24 22 22 21 20 20 22 21 22 25 29 30 32 34 35 34 35
31 30 27 24 21 19 15 12 9 7 6 4 3 2 1 2 4 6 7 6 5 7 10 12 14 15 16 18 20 21 22 24 25 25 28 30 32 33 34 34 36 35 34 33 32 33 35 37 39 40 39 37 37 37 35 33 33 34 35 36 35 33 32 30 29 27 23 22 22 22 23 22 21 23 23 21 22 25 27 28 29 31 32 33 32
33 30 28 25 23 19 16 13 11 8 7 5 4 3 1 3 5 6 5 3 5 8 10 11 12 14 16 18 20 22 23 23 24 25 28 30 31 32 33 33 35 35 32 31 30 30 32 34 34 34 33 32 32 31 26 24 26 28 30 32 31 30 30 29 26 24 23 23 22 22 21 21 21 24 23 22 24 26 26 24 24 26 27 27 25
34 31 29 27 24 20 17 15 12 10 8 7 5 4 2 4 6 4 2 3 5 8 10 10 12 14 16 17 19 21 22 22 23 26 29 31 32 32 31 31 32 31 30 29 27 26 26 28 29 29 29 29 28 28 26 23 23 23 23 23 23 24 27 28 28 26 25 25 24 22 21 20 20 23 24 23 24 26 25 24 22 22 24 22 19
34 32 30 28 25 22 19 17 15 13 10 8 8 6 4 4 5 2 2 4 6 9 11 12 13 14 16 18 19 19 20 21 22 27 31 33 34 33 31 30 29 28 30 30 27 24 24 25 26 26 26 26 26 26 26 24 23 22 21 21 21 23 26 26 27 27 25 24 24 23 21 20 21 23 24 23 23 24 25 24 22 21 22 19 14
34 32 30 28 25 23 20 18 16 14 11 10 8 6 4 3 4 2 2 4 7 10 13 13 14 15 17 18 18 19 20 22 26 31 33 33 34 33 32 31 30 29 30 29 25 23 23 24 24 24 24 24 24 24 24 24 24 23 22 22 22 22 25 25 20 20 21 23 24 22 20 19 21 23 22 21 22 24 24 22 21 20 20 18 14
32 30 29 28 26 24 21 18 16 14 13 11 8 6 5 2 1 1 2 6 8 10 12 12 14 16 17 17 18 18 21 25 29 31 32 32 33 32 31 31 30 30 30 28 23 21 22 22 22 23 23 22 22 22 23 24 24 24 24 23 22 20 21 22 21 20 19 18 20 22 20 19 21 22 21 20 20 21 22 22 22 20 19 15 11
33 29 29 28 26 25 22 19 17 14 12 11 9 8 7 4 2 2 2 6 8 9 9 11 13 15 15 17 18 19 22 26 28 29 30 31 32 31 30 29 29 29 29 26 20 19 21 20 21 22 23 22 21 22 23 23 22 23 24 23 21 20 19 19 20 21 22 21 20 20 20 22 23 23 21 19 18 19 20 21 21 21 21 18 12
35 31 30 28 26 25 22 19 17 15 12 10 8 7 8 6 3 1 1 4 5 6 8 12 14 15 15 17 19 20 24 26 26 27 28 29 30 30 29 28 28 30 31 27 21 20 21 20 20 22 23 22 22 23 24 23 22 23 23 23 23 22 21 21 21 20 20 19 20 20 20 20 22 22 21 20 19 19 18 18 19 20 19 18 15
37 34 32 29 27 25 23 20 18 16 14 11 9 8 8 7 6 6 7 8 6 4 7 12 15 16 17 19 21 22 25 25 26 27 27 27 29 30 27 26 27 29 29 25 22 21 22 20 20 22 23 23 24 24 24 24 24 24 23 23 24 24 24 24 22 20 18 18 18 19 21 21 21 22 22 22 21 18 16 16 18 18 15 13 12
36 35 33 31 29 26 24 21 19 17 15 12 11 10 9 6 4 5 8 10 9 8 10 14 15 17 19 21 22 23 25 25 25 25 25 26 28 28 25 25 27 29 28 23 20 21 22 22 22 23 24 25 25 25 25 25 26 26 25 25 26 26 25 24 22 20 19 19 19 19 20 22 22 20 20 20 18 17 15 15 15 13 11 10 10
34 33 32 31 29 27 25 22 21 18 16 14 12 11 9 6 3 1 2 6 8 11 13 15 16 16 18 20 22 23 24 24 24 24 24 25 26 26 23 23 26 28 27 25 22 21 21 22 23 24 25 25 26 26 25 26 26 27 27 27 27 28 28 25 22 21 20 19 20 20 20 22 23 22 20 18 16 12 11 11 12 12 10 9 9
34 32 31 30 29 28 25 23 21 19 17 15 13 11 9 7 4 2 2 3 6 8 11 15 16 16 16 19 22 24 24 24 23 23 23 24 25 24 21 20 21 22 23 24 24 22 22 22 23 25 26 26 26 27 26 26 27 28 28 29 28 28 28 24 22 23 22 20 19 20 21 21 22 23 22 18 16 14 13 11 12 13 13 12 11
36 34 32 31 29 28 26 23 21 19 16 15 13 11 10 8 5 4 2 3 4 5 7 13 16 16 17 21 24 25 25 24 21 20 22 25 25 23 19 18 18 19 20 21 21 21 22 22 22 24 27 26 27 28 29 28 28 27 29 30 29 27 26 24 24 25 24 22 20 20 20 21 22 24 23 16 12 14 15 14 12 11 13 16 15
36 35 34 32 30 29 26 24 21 19 16 15 13 12 10 8 6 4 3 1 1 2 5 10 12 13 16 20 23 24 24 24 23 24 26 27 25 22 20 18 18 18 18 19 19 19 21 22 23 26 29 28 28 29 30 29 28 27 29 30 28 26 26 26 25 24 23 22 21 20 21 21 22 24 24 18 12 11 12 12 11 8 8 12 13
33 33 32 31 30 28 27 25 22 19 17 15 13 12 11 9 7 5 3 2 3 4 5 8 10 10 12 16 20 22 22 22 21 22 25 26 25 23 21 20 20 20 19 20 22 23 23 26 30 34 33 30 30 31 32 31 29 29 30 29 26 25 27 26 24 24 24 23 23 22 21 22 23 24 24 21 14 12 11 10 10 8 5 6 10
35 33 31 30 29 27 25 24 22 19 18 16 14 12 11 9 8 6 5 4 5 5 6 7 9 10 10 13 17 18 18 18 18 19 21 24 26 26 24 22 21 22 22 23 25 28 30 33 38 40 38 35 35 37 37 34 30 29 30 29 26 25 27 26 25 24 24 23 24 23 22 22 23 23 22 21 15 11 11 10 10 10 7 7 11
38 34 31 30 30 27 25 23 21 19 17 16 14 13 11 9 8 7 6 6 5 6 6 7 8 9 10 11 13 14 14 15 17 19 20 23 25 28 28 27 25 25 25 26 27 30 34 38 42 43 42 41 44 46 43 36 31 31 32 32 30 29 28 29 28 26 22 22 23 24 23 22 22 21 19 20 20 13 10 10 9 11 10 8 9
39 36 33 31 30 28 26 24 21 19 18 16 14 12 11 9 8 7 7 7 6 6 7 7 9 10 10 11 12 13 14 16 18 20 22 24 26 28 30 30 31 30 30 31 31 33 35 37 41 44 45 45 48 51 47 40 35 35 35 33 32 30 29 29 30 28 25 23 23 24 24 23 21 20 18 18 19 15 8 9 8 11 11 7 6
39 37 35 33 30 27 26 24 21 19 17 16 14 13 11 9 9 8 7 7 6 6 7 8 10 10 11 11 12 13 15 17 18 20 22 24 26 28 29 31 32 33 34 35 35 35 34 36 40 45 46 46 48 51 49 43 39 39 38 35 33 31 31 31 32 32 31 28 25 24 25 23 20 18 17 15 16 15 9 7 7 9 11 9 7
38 36 34 32 29 27 25 23 21 19 17 16 14 12 11 10 9 8 7 7 7 6 7 8 10 10 11 12 13 14 16 17 18 20 21 23 25 27 29 31 32 33 35 36 38 37 37 38 42 46 48 48 50 51 49 43 39 39 40 36 33 33 34 36 37 37 36 34 29 25 25 24 20 17 15 14 15 15 10 6 6 7 9 9 8
37 36 34 32 29 27 25 22 20 19 18 16 14 13 11 10 9 8 7 7 6 6 7 8 9 10 12 13 14 15 16 17 18 19 20 22 24 25 27 30 32 33 34 36 38 39 38 39 42 46 48 49 50 51 50 43 38 40 42 38 33 35 38 39 40 39 37 36 32 27 25 25 22 19 17 15 15 15 11 6 5 6 7 8 7
37 36 34 32 30 27 25 23 20 19 17 16 15 13 12 10 9 8 7 7 6 5 6 7 8 9 11 12 14 15 16 17 18 19 20 21 22 24 26 29 31 32 34 35 37 39 39 40 42 44 47 50 51 51 50 44 38 40 44 42 38 38 41 42 41 38 36 36 34 29 26 25 23 22 22 19 16 16 13 7 4 6 8 9 8
35 34 33 31 29 27 25 23 21 19 17 16 14 13 12 11 9 8 6 6 5 5 5 6 7 9 10 12 13 15 16 17 18 19 20 21 22 23 25 27 30 32 33 34 36 39 40 40 42 43 46 49 50 50 48 42 37 38 44 45 45 45 46 45 43 40 38 38 37 33 29 26 24 24 23 21 18 17 13 6 4 5 7 10 11
34 33 31 29 28 27 25 23 21 19 18 16 15 13 12 11 9 8 6 5 4 4 4 5 7 8 10 11 13 15 16 17 18 19 19 21 22 23 24 26 29 31 33 34 36 38 39 40 41 42 44 47 49 50 47 40 35 38 44 47 49 51 50 47 45 45 42 40 40 38 33 28 26 25 23 22 21 19 14 6 2 4 6 8 11
33 32 30 28 27 26 24 23 21 19 18 17 15 13 12 11 9 8 6 4 3 3 4 5 6 8 10 11 13 14 15 16 18 19 19 20 21 22 24 25 27 29 32 33 35 36 38 39 39 40 43 45 48 50 47 37 32 37 44 48 51 54 53 49 48 50 47 42 42 42 38 32 28 27 25 25 25 23 20 17 11 1 5 7 9
32 30 29 27 26 24 23 21 20 19 17 16 15 14 12 11 9 8 6 4 3 2 3 5 6 8 10 11 12 14 15 16 17 18 19 20 21 22 23 25 26 28 30 32 33 35 37 39 39 40 42 44 46 48 45 37 33 38 43 46 50 55 56 52 51 52 51 46 44 44 42 38 33 30 29 29 29 26 23 23 21 14 4 3 7
31 29 28 27 25 24 23 21 20 19 17 16 15 13 12 10 9 7 5 4 2 1 2 4 6 7 9 11 12 14 15 16 17 18 19 20 21 22 23 24 25 27 30 31 33 34 36 38 39 40 41 43 45 46 43 38 38 41 43 44 47 54 57 54 51 51 51 48 45 44 46 43 38 32 30 30 31 29 25 23 23 21 16 10 3
Wind_Direction
190 190 191 192 193 193 197 201 206 217 230 246 260 270 277 281 283 284 287 292 292 292 294 291 290 289 285 284 284 283 280 280 280 277 274 274 273 273 273 270 269 269 270 269 267 266 264 260 257 256 257 258 259 259 257 257 256 254 253 255 259 261 263 268 275 279 273 270 271 275 277 278 273 269 268 267 265 265 266 270 273 272 270 265 263
188 190 190 191 193 194 197 202 207 219 233 248 262 272 279 282 284 288 292 293 292 295 295 288 285 285 281 282 284 283 280 280 280 277 275 277 277 276 274 272 272 272 272 272 271 269 266 262 262 263 262 260 259 259 259 257 257 256 255 253 255 256 258 266 276 285 282 278 279 281 281 280 276 268 263 261 262 263 263 264 267 266 264 263 263
187 189 190 191 193 195 198 203 210 221 234 248 262 271 277 281 285 290 292 291 290 291 289 284 282 284 283 283 284 282 279 279 278 276 276 278 278 277 275 273 274 274 273 273 273 272 269 268 269 268 266 262 260 260 260 259 257 256 255 252 254 260 264 271 277 279 283 283 279 277 277 277 275 271 267 264 262 261 262 264 265 262 260 262 264
187 188 189 191 194 196 200 204 211 220 232 245 259 268 276 282 286 287 286 288 289 288 288 288 287 287 286 284 282 281 279 277 277 277 276 277 278 278 277 276 275 274 273 274 274 273 271 271 272 270 267 265 263 262 261 260 257 255 256 255 256 262 267 269 272 272 273 274 270 268 269 270 272 272 270 270 267 260 261 268 270 266 264 265 263
186 187 189 191 194 197 200 204 210 217 228 242 255 266 274 280 281 281 282 287 291 292 296 296 291 288 287 284 280 279 278 278 279 278 277 277 277 278 278 277 275 274 273 272 271 271 271 271 271 272 270 267 265 265 263 261 260 257 257 257 254 257 260 260 264 267 265 263 265 267 266 268 271 269 264 263 264 261 260 267 271 269 268 268 264
184 186 188 190 192 195 197 201 206 211 221 233 247 259 268 273 275 279 285 290 297 300 303 303 298 290 287 283 278 277 278 280 280 279 279 278 278 278 277 275 273 270 268 267 265 264 264 265 267 268 268 267 265 265 264 263 263 260 258 257 256 256 258 259 262 264 263 261 263 266 268 269 269 265 255 249 252 259 265 271 271 267 265 265 265
183 186 187 188 190 193 195 197 201 205 214 224 238 252 262 270 276 283 291 296 303 306 307 308 304 296 289 284 279 278 280 281 280 280 281 280 279 279 276 272 269 266 263 262 260 258 255 256 259 259 260 262 262 262 264 263 262 261 260 260 259 256 257 260 262 264 265 266 266 265 267 268 265 259 249 241 241 253 269 278 272 266 262 259 261
182 184 186 187 189 190 191 193 195 200 208 217 233 247 259 270 278 288 297 303 307 309 310 310 307 299 290 283 282 283 282 282 282 283 285 284 282 278 273 269 267 265 264 262 260 258 255 252 253 253 254 258 259 258 259 260 259 259 258 257 258 257 257 260 262 264 266 270 271 269 270 270 266 258 249 242 240 252 278 290 279 272 272 267 265
181 183 184 186 187 187 188 189 192 198 203 213 229 242 256 269 281 294 304 308 311 312 313 312 306 297 288 285 285 285 283 281 282 284 287 288 285 282 280 277 275 274 274 273 271 269 265 260 255 250 248 253 258 258 256 256 256 257 257 255 255 256 257 259 262 265 269 271 271 272 275 275 269 261 252 248 248 284 313 311 298 293 291 282 275
181 183 183 184 185 184 184 187 189 193 198 208 223 236 253 268 285 302 309 314 315 314 313 311 302 291 289 292 292 289 286 283 282 285 289 292 292 291 289 287 284 283 283 283 283 281 278 274 269 261 253 251 256 259 259 259 258 256 256 256 254 253 254 255 258 262 266 272 274 275 279 280 279 279 274 276 302 325 329 328 318 312 304 292 286
179 181 182 182 183 182 183 185 186 190 196 205 218 232 250 267 293 310 313 318 319 317 315 309 299 292 292 296 296 293 291 288 288 292 295 296 296 294 292 291 288 286 284 284 284 283 282 280 277 274 267 258 255 257 258 259 260 259 259 259 257 256 254 254 256 258 259 264 270 273 274 277 282 283 283 289 301 305 320 331 327 323 313 302 303
178 180 180 180 181 181 182 183 184 189 195 204 216 229 248 272 304 311 313 319 319 316 314 304 297 297 296 297 298 296 295 296 297 298 299 300 300 298 294 292 290 286 285 285 284 284 284 282 279 277 274 267 261 259 257 256 256 259 261 261 260 258 257 255 256 257 258 261 263 265 266 269 276 282 285 287 288 290 312 328 318 316 305 299 310
178 178 179 180 180 181 182 181 183 189 195 204 213 224 248 278 309 309 312 320 317 312 310 304 301 303 302 302 301 297 300 305 304 304 305 304 303 301 297 293 290 288 287 287 286 284 283 283 281 278 275 273 269 265 261 258 257 260 261 261 261 260 259 257 257 258 259 261 262 262 264 266 268 275 281 286 290 292 301 313 308 304 294 288 296
177 178 178 179 180 181 182 181 183 189 194 201 209 216 241 287 311 309 311 317 314 310 310 308 309 312 310 308 304 301 305 309 308 307 308 307 306 305 300 294 290 288 288 287 286 284 283 282 281 279 279 277 274 270 266 260 257 259 259 260 260 261 260 260 260 260 260 260 261 261 261 263 263 265 272 280 287 290 294 301 297 295 293 292 291
176 177 177 179 181 181 181 181 184 187 190 197 204 208 236 299 307 305 311 313 311 312 311 310 314 319 319 315 309 307 310 311 307 308 308 307 308 307 300 292 287 285 285 286 284 283 282 281 281 280 279 278 276 274 271 265 259 257 255 255 254 254 255 257 259 260 259 258 260 260 259 260 259 259 264 268 273 278 284 288 287 290 296 296 294
174 176 177 180 182 182 182 182 183 184 188 195 195 194 231 294 305 306 315 319 317 317 314 311 313 317 321 320 313 309 313 312 307 308 308 307 308 306 298 292 288 287 288 288 286 284 281 279 280 279 278 277 275 274 274 272 268 263 257 252 250 248 247 252 258 261 260 259 260 262 263 262 258 255 255 258 264 272 277 278 278 285 292 291 296
173 176 179 182 182 183 183 183 183 184 187 191 188 181 222 299 314 309 321 326 323 320 316 313 315 316 319 321 316 309 310 310 307 306 308 308 308 305 299 294 292 289 289 289 288 286 282 279 279 279 279 278 276 275 275 274 273 271 265 259 256 253 252 256 262 264 263 262 262 263 265 264 260 253 249 250 256 261 263 263 267 277 286 280 293
174 178 181 183 183 183 182 182 184 185 185 183 178 175 224 305 328 331 337 331 322 323 322 315 315 317 317 319 316 304 302 307 307 305 305 307 308 306 301 296 293 291 290 289 288 285 282 280 278 277 277 277 277 276 275 273 271 270 268 267 263 259 257 258 262 265 265 264 264 262 262 264 261 253 246 246 250 252 251 255 261 265 278 275 280
177 179 181 182 182 181 181 182 184 185 183 177 169 167 223 356 5 356 347 336 324 324 322 315 316 319 318 316 311 300 296 302 304 302 304 307 309 308 304 297 292 290 290 291 289 286 285 285 283 278 277 277 277 277 274 272 271 269 271 273 270 266 264 260 257 261 264 264 263 263 263 265 262 253 245 244 247 248 246 251 256 255 258 265 268
176 177 179 181 181 180 180 182 184 183 181 174 160 141 66 34 20 0 347 338 328 322 321 321 319 318 315 310 302 295 294 296 298 300 303 306 308 308 307 303 296 290 290 292 293 293 294 294 290 285 282 281 280 279 276 274 273 274 275 275 273 273 274 268 259 257 260 262 266 269 271 272 269 258 246 240 241 243 243 247 250 248 246 249 256
173 174 176 177 178 178 178 179 180 180 178 170 156 135 82 39 13 358 346 334 329 330 333 329 319 310 307 302 296 294 295 295 298 301 303 305 307 308 308 307 304 301 301 300 299 299 299 298 296 292 288 286 284 282 279 275 272 272 271 270 271 274 276 275 269 261 256 258 263 267 269 269 267 260 251 244 241 240 241 243 244 244 244 244 248
170 172 173 174 174 175 175 175 175 172 172 171 162 151 46 14 4 353 342 334 334 336 336 329 315 308 307 302 298 295 295 297 300 301 304 307 308 308 308 308 309 309 307 303 301 300 299 298 297 295 292 289 287 283 281 278 275 273 271 269 272 274 275 277 276 267 256 252 256 257 259 261 260 254 248 245 240 237 239 239 239 244 246 245 246
168 169 169 170 170 171 171 171 170 166 167 169 159 164 297 352 2 352 344 343 342 336 330 326 319 313 308 305 303 300 298 301 302 303 307 310 311 312 313 312 312 312 308 303 301 300 300 299 299 299 297 294 290 284 280 277 274 272 270 269 270 272 274 276 276 270 259 252 252 252 252 252 252 250 246 242 238 236 238 239 239 243 246 246 249
166 165 166 166 166 168 168 166 167 165 163 162 157 163 239 8 14 1 353 351 340 327 326 326 319 313 310 309 308 306 305 305 302 303 309 313 315 317 316 314 315 314 309 305 302 301 301 303 304 305 305 302 298 292 285 279 275 272 271 272 272 273 274 273 273 271 264 254 250 250 250 247 244 246 247 244 241 240 241 242 241 241 245 247 249
164 163 164 164 165 166 164 161 164 167 164 159 158 162 95 32 25 14 3 351 328 321 323 317 309 309 312 311 309 310 310 307 304 307 313 317 319 320 319 317 317 316 313 308 305 305 307 309 311 312 311 310 309 304 292 282 278 277 275 275 275 273 273 271 268 267 261 254 251 249 248 246 242 245 249 246 244 245 242 242 242 241 246 250 252
163 162 163 163 164 163 160 157 161 165 164 161 162 164 110 45 33 23 4 329 313 314 309 303 306 312 313 310 310 312 312 310 310 314 318 321 323 324 323 321 320 319 317 313 312 315 317 317 318 319 319 318 320 319 309 295 287 283 280 279 276 270 267 264 262 262 257 253 252 250 248 245 240 243 248 245 242 244 240 239 243 242 246 250 251
161 161 161 161 162 160 158 159 161 161 159 158 159 159 119 50 39 35 355 293 306 308 304 308 316 317 313 310 312 314 314 315 319 321 325 328 329 328 327 326 324 324 323 321 323 325 323 321 323 325 326 327 330 334 334 326 316 307 301 297 293 286 277 265 254 254 257 255 251 248 248 247 242 242 244 240 238 242 240 238 241 242 245 248 247
161 161 161 161 160 158 158 161 160 158 156 154 155 157 134 70 45 34 258 267 290 302 310 317 319 316 313 313 315 317 317 320 325 328 331 333 333 332 332 330 330 330 329 330 333 330 324 324 328 330 332 336 338 339 339 337 330 324 320 317 315 314 308 289 260 247 249 253 253 251 249 247 244 243 243 240 239 242 240 236 237 239 243 245 242
160 160 160 159 157 156 159 161 159 155 150 147 152 161 148 96 55 37 278 277 293 304 311 315 317 317 317 317 319 321 322 325 330 333 334 336 336 336 336 334 334 336 336 337 337 333 331 334 336 335 337 340 342 342 339 335 329 325 323 322 320 321 325 318 296 267 253 248 249 251 252 251 248 245 244 243 241 240 238 233 233 237 238 240 241
157 158 158 157 156 156 157 157 157 154 145 140 139 140 143 135 59 20 299 294 302 312 315 317 320 322 320 321 324 324 324 328 333 335 337 338 339 341 341 339 341 345 346 344 341 340 342 341 338 337 338 339 340 340 336 332 329 326 325 325 326 324 324 325 323 315 300 277 259 250 246 248 251 249 245 243 240 238 237 234 232 234 235 236 240
157 158 159 157 157 159 158 155 154 151 143 137 128 115 113 117 133 164 255 298 310 318 322 326 330 332 330 331 333 331 332 335 338 340 341 341 342 345 346 346 349 354 355 353 350 347 346 343 339 339 338 336 337 335 331 328 327 326 324 323 326 327 322 318 320 321 317 308 291 271 252 243 246 248 245 242 240 239 239 235 230 230 232 234 238
159 158 159 158 158 159 158 156 153 147 140 135 121 99 82 63 60 154 271 328 335 331 335 342 346 346 346 346 345 343 343 344 344 344 344 344 345 348 351 353 357 359 1 3 2 353 347 343 339 338 336 333 332 330 329 328 326 324 324 323 324 325 322 317 315 312 307 304 301 294 278 257 247 246 245 243 241 239 238 234 228 228 231 233 235
163 159 159 158 157 157 157 155 152 146 139 134 121 102 83 54 21 341 332 346 2 8 1 359 357 357 358 357 354 351 349 349 349 348 348 347 348 349 351 355 360 2 4 5 1 353 348 342 337 336 335 332 328 325 325 327 325 323 322 321 319 319 317 314 313 309 303 300 296 295 292 280 262 249 244 243 240 235 234 233 231 231 235 234 228
165 163 161 158 156 155 155 153 150 144 139 135 122 109 102 90 52 358 343 345 349 354 3 9 12 9 4 360 357 356 354 352 351 350 348 348 350 350 351 356 1 5 7 5 356 349 347 344 338 335 332 329 326 323 322 324 325 324 322 319 316 316 316 316 315 311 309 306 301 297 296 292 281 264 248 241 238 235 233 234 232 231 233 230 219
162 161 161 159 155 154 153 153 149 143 139 135 126 117 117 120 114 80 334 321 318 322 338 357 13 17 8 360 357 357 356 353 352 352 351 352 353 353 355 359 360 0 2 1 355 348 344 341 338 333 329 326 324 323 320 320 321 322 320 317 317 317 317 317 316 314 311 307 303 300 297 295 292 282 264 247 239 237 236 231 229 230 229 222 210
158 156 156 156 154 152 152 150 146 143 140 134 128 125 128 134 137 150 218 269 282 297 324 348 7 17 17 12 9 4 359 354 352 351 351 354 357 359 0 357 352 350 351 351 349 345 340 338 335 331 328 325 323 322 320 317 318 319 318 316 316 315 314 313 315 316 312 305 299 298 296 295 295 292 280 258 239 237 239 229 226 233 227 211 197
157 155 155 155 153 151 149 146 143 142 140 133 130 130 134 141 148 157 190 249 269 289 330 355 7 12 14 17 16 8 360 358 0 1 2 5 5 4 359 351 345 344 344 343 342 340 335 332 331 330 328 325 322 321 320 317 315 317 317 316 312 310 312 314 315 314 311 304 299 298 297 296 298 298 292 275 240 232 234 225 224 238 227 204 191
159 157 156 155 153 151 147 144 142 141 138 134 135 136 137 139 143 149 165 207 305 334 352 8 14 7 2 7 7 359 355 2 11 11 9 8 5 359 353 347 343 342 337 333 336 336 331 329 331 331 329 326 323 321 319 316 315 316 317 313 309 311 319 323 319 316 315 310 305 304 303 302 301 301 298 287 253 226 224 218 217 233 228 201 188
156 156 155 154 153 151 148 145 143 142 140 139 138 138 137 137 138 143 145 106 62 30 13 15 14 3 358 4 3 353 347 355 0 356 354 357 358 356 352 348 343 340 335 332 334 336 334 334 337 337 333 328 325 324 320 315 315 318 318 313 311 318 327 328 325 323 323 320 313 309 307 304 301 298 299 293 266 225 213 213 210 212 223 203 186
152 151 152 153 152 149 146 144 142 142 143 142 139 138 138 138 139 136 121 97 71 45 31 19 7 2 5 6 360 348 340 343 344 340 341 348 353 355 354 348 342 339 334 332 335 337 338 339 341 341 337 333 332 331 327 320 318 321 321 319 320 326 330 331 329 326 324 322 319 313 306 301 298 295 297 302 291 247 213 206 200 197 210 216 194
151 149 151 152 151 147 144 143 143 144 144 141 139 140 140 139 139 131 111 96 76 50 37 23 10 10 12 5 354 344 340 342 343 342 343 347 350 353 354 351 347 343 338 336 337 340 341 342 343 343 341 339 340 339 334 326 323 327 326 324 325 330 334 336 336 332 327 323 320 314 306 299 296 293 294 303 307 288 233 208 197 188 198 222 210
153 151 151 152 150 147 144 145 146 146 143 139 139 142 142 139 137 127 111 99 82 57 40 25 16 16 17 10 0 353 352 354 351 348 348 351 353 353 353 353 351 350 347 346 345 344 343 343 344 344 344 343 343 343 337 330 330 334 331 326 327 333 337 338 338 337 333 327 319 313 308 301 296 293 291 297 308 305 263 220 207 188 186 202 205
155 153 152 151 149 147 147 148 147 144 142 142 142 144 143 141 136 127 114 100 83 61 41 27 19 17 16 14 9 2 0 360 355 351 351 353 354 354 353 353 353 354 355 354 353 350 346 345 345 346 346 345 345 344 340 335 334 337 334 328 329 337 342 341 340 338 335 330 322 314 311 306 300 298 297 299 311 315 289 238 219 195 182 175 166
154 152 149 148 147 148 148 147 145 143 143 144 146 145 143 140 135 127 117 104 85 64 44 30 20 15 11 9 7 4 1 358 354 353 353 354 354 355 354 353 355 356 358 358 357 355 352 349 349 349 350 349 349 349 346 341 339 342 340 334 334 341 345 344 342 339 336 332 325 318 315 313 310 308 308 310 318 322 308 252 218 198 181 167 157
154 151 148 146 148 149 148 146 145 145 146 148 149 147 145 142 137 130 120 106 89 67 49 34 22 14 9 5 2 360 357 354 352 353 354 353 353 353 353 354 356 358 358 358 359 358 356 353 351 350 350 350 351 351 350 346 346 350 351 346 343 346 348 347 344 341 338 335 328 321 318 320 321 322 323 320 316 316 311 277 218 193 173 160 159
154 151 149 149 150 149 147 147 148 149 150 152 152 151 149 146 141 133 122 111 97 74 51 33 22 13 6 0 357 354 351 351 352 354 354 354 353 352 353 354 357 359 359 359 360 0 358 356 355 354 353 352 351 351 350 347 347 352 355 354 352 352 353 351 348 345 342 341 337 331 327 329 330 330 331 328 318 310 305 286 220 185 170 158 157
155 153 152 152 150 148 148 150 151 152 153 154 155 156 154 149 144 138 127 114 100 80 52 30 18 10 2 356 353 349 348 349 351 353 354 354 352 352 354 355 357 359 0 1 1 0 359 358 358 358 356 354 353 351 350 348 349 353 356 357 357 357 356 355 354 351 348 347 347 344 340 339 339 336 334 333 329 321 309 282 219 180 166 159 157
156 154 153 152 150 150 151 153 154 156 157 157 159 160 158 152 147 143 135 120 102 78 49 25 12 5 357 352 348 346 345 348 351 352 353 353 351 351 353 355 356 358 360 1 1 0 360 360 0 360 359 357 356 354 351 350 351 355 357 358 359 359 359 359 0 358 354 354 356 356 352 348 346 343 340 338 337 336 333 322 244 186 165 154 156
156 155 153 152 152 153 155 157 158 159 160 162 164 163 160 156 153 149 142 127 105 75 38 17 8 359 351 346 344 344 345 348 351 352 351 350 350 350 351 353 356 358 359 0 1 1 1 1 2 3 2 0 359 357 355 352 352 356 358 358 359 0 1 2 4 3 360 360 2 4 2 359 355 353 352 351 350 352 357 4 8 21 173 160 154
157 155 154 154 155 156 156 158 160 161 163 166 167 165 163 161 156 154 152 140 114 75 26 10 1 351 344 340 339 341 345 347 349 350 349 347 348 348 349 351 354 357 359 0 1 1 1 2 3 4 4 2 1 1 359 355 353 355 356 357 359 1 3 4 5 6 6 6 6 7 9 9 7 4 2 2 2 1 1 6 11 14 25 144 161
156 156 155 156 157 158 157 160 162 164 165 168 168 167 167 166 162 162 164 153 127 67 8 359 349 340 337 335 335 339 343 346 347 347 346 346 347 347 347 349 352 354 357 360 1 2 3 3 2 3 4 3 2 2 0 357 354 353 354 356 360 2 4 5 5 6 9 11 11 10 12 14 13 9 6 6 7 6 4 7 12 15 16 19 53
Height
758 761 764 766 768 770 771 771 772 774 775 775 775 775 775 775 774 774 772 771 769 768 766 765 763 762 760 759 758 757 756 755 754 752 750 748 746 744 743 742 740 738 736 734 733 731 728 725 722 720 720 717 714 711 709 707 704 701 698 694 692 689 685 681 672 662 659 659 656 650 646 644 641 638 637 634 629 627 624 623 622 620 618 616 614
754 757 760 763 765 766 767 768 769 770 771 771 771 772 772 771 771 769 768 767 765 764 763 762 760 758 757 755 754 754 752 751 750 749 746 744 742 740 739 737 735 734 732 729 728 726 723 720 717 716 716 712 709 707 704 703 700 696 693 690 687 685 682 678 673 666 659 655 654 648 643 641 638 634 633 629 624 622 619 618 617 615 613 611 609
750 753 756 759 761 762 763 764 765 766 767 767 767 768 767 767 766 765 764 763 762 761 760 759 757 755 754 752 751 750 749 748 746 745 742 740 738 735 734 733 731 729 727 725 723 722 720 716 713 712 711 707 703 702 700 698 695 691 688 686 683 680 678 676 673 668 659 653 652 648 640 637 634 631 628 624 620 617 615 614 614 611 608 607 605
746 749 752 755 756 758 759 760 761 762 763 763 763 763 763 762 762 761 760 760 759 758 757 755 754 753 751 750 748 747 745 744 742 740 738 736 733 731 729 728 726 724 723 720 719 718 716 713 710 709 707 703 699 698 696 693 690 687 683 681 679 677 675 674 671 667 660 652 649 644 637 633 630 627 624 621 616 613 611 611 610 607 604 602 601
741 745 748 750 752 753 754 756 757 758 758 759 759 759 758 758 758 757 757 756 755 754 753 752 751 749 748 746 745 743 741 739 737 735 733 731 728 726 724 722 721 720 718 716 715 714 712 709 707 705 702 698 695 693 691 688 686 683 680 677 676 674 673 671 669 665 659 651 644 639 633 629 625 621 619 616 613 610 606 605 605 603 600 597 596
737 740 744 746 748 749 750 752 752 753 754 754 754 755 754 754 754 753 753 752 751 750 749 749 747 746 744 743 741 739 737 735 733 730 729 726 724 722 719 718 716 714 712 711 709 707 705 703 701 700 698 694 691 688 686 684 681 678 675 673 672 671 669 667 664 661 654 647 641 634 628 624 620 614 611 609 608 605 601 599 599 598 595 593 591
733 736 739 742 744 745 746 747 748 749 749 750 751 751 750 750 750 749 749 748 747 746 746 745 744 743 741 740 738 736 733 731 729 727 725 722 720 717 715 713 711 708 706 703 701 699 696 695 693 692 691 688 685 683 681 679 676 674 672 670 668 667 664 662 659 655 649 642 637 631 624 619 613 606 602 600 599 597 595 594 593 591 590 589 587
728 732 735 738 740 741 743 744 744 745 746 746 747 747 747 747 746 746 745 744 744 743 742 742 741 740 738 737 735 733 730 728 726 723 721 718 716 713 711 709 705 703 700 697 695 692 689 687 685 683 683 681 678 676 675 673 671 668 667 665 664 662 659 657 654 649 644 638 632 627 620 613 606 600 597 595 592 590 590 591 589 586 586 585 582
724 728 731 734 736 738 739 740 741 742 742 742 743 743 744 743 743 742 741 741 740 740 739 739 738 737 736 734 732 730 727 725 722 720 717 715 713 710 708 705 702 698 695 692 690 687 684 681 678 675 674 672 671 669 667 667 665 662 661 660 659 657 654 652 649 645 640 634 627 622 617 609 602 597 594 590 586 585 586 587 586 583 582 580 576
720 724 727 730 732 734 736 737 737 738 739 739 740 740 740 740 739 738 738 738 738 737 737 736 736 735 733 731 729 727 724 721 719 717 715 713 711 708 705 702 699 696 692 688 685 682 680 677 673 669 666 664 663 662 660 660 658 656 654 653 652 651 648 646 644 641 636 630 623 619 614 607 600 595 591 586 583 581 582 583 583 581 579 574 568
717 721 724 727 729 731 732 733 734 735 735 736 736 737 737 736 736 735 735 735 735 735 734 734 733 732 730 728 726 724 721 718 715 714 713 711 708 705 701 698 695 692 689 684 680 677 674 671 668 664 661 658 656 654 653 652 650 648 647 645 644 643 642 639 637 635 632 626 621 617 612 606 600 595 590 585 582 580 580 581 581 580 579 574 567
715 719 722 725 727 728 729 730 731 731 732 732 733 733 733 733 733 732 732 732 732 732 732 731 730 729 727 725 723 721 717 715 713 711 709 708 706 703 699 695 691 688 684 680 676 672 668 665 661 658 655 652 650 647 645 643 642 641 639 638 637 635 634 632 630 628 626 622 617 612 608 604 599 594 589 585 581 579 579 579 579 580 579 576 571
713 717 720 722 724 725 726 727 727 728 729 729 729 730 730 730 730 730 730 730 730 729 729 728 727 726 724 722 720 718 715 712 710 709 706 704 702 700 696 692 688 684 680 676 672 668 664 660 655 652 649 646 644 641 639 636 635 634 632 631 629 628 627 625 624 622 619 616 611 607 604 602 597 593 589 585 581 579 578 577 578 578 577 575 573
711 715 718 720 722 723 723 724 725 725 726 726 727 727 727 727 727 727 727 727 727 727 727 726 724 723 722 720 718 715 712 709 707 706 703 701 698 696 692 688 684 680 676 672 668 664 660 655 650 646 643 641 638 635 632 630 628 626 625 624 622 621 620 618 617 616 613 610 605 601 600 599 594 590 588 585 582 580 578 577 576 576 574 572 570
709 713 715 718 719 720 721 722 722 722 723 724 724 724 724 725 725 725 725 725 725 725 724 723 722 721 719 717 715 712 709 707 705 702 700 697 694 691 688 683 679 675 670 667 663 658 655 650 645 641 637 635 632 629 627 624 621 619 618 616 615 613 612 611 610 609 606 603 600 596 595 593 589 587 587 585 581 579 578 576 575 574 572 569 566
706 710 713 715 717 718 718 719 719 720 721 722 722 722 722 723 723 723 723 723 723 723 722 721 720 718 717 715 713 709 706 704 702 699 696 693 690 687 683 679 675 670 665 661 657 653 649 645 640 636 632 629 626 624 621 618 615 613 610 608 607 605 603 603 603 601 598 596 594 591 589 587 584 582 582 581 579 578 577 575 573 572 570 566 562
703 706 710 712 713 715 716 716 717 718 719 719 719 720 721 721 721 721 721 721 721 721 720 719 718 716 714 713 710 707 703 701 699 696 693 691 687 684 679 674 670 665 659 655 651 647 643 640 635 631 626 623 620 618 616 614 610 606 603 601 599 597 595 596 595 592 590 589 587 585 583 581 578 577 576 575 575 576 575 572 571 570 568 565 560
699 703 706 708 710 712 713 714 715 716 717 717 717 718 719 720 719 719 719 719 719 718 717 716 715 713 712 710 708 705 701 697 696 693 690 688 685 681 676 670 665 659 654 649 645 640 636 632 630 626 620 617 615 612 611 609 604 600 597 594 591 588 588 588 587 585 583 581 580 578 575 573 571 569 568 568 569 571 570 568 567 567 566 564 560
694 699 702 705 708 709 711 712 713 714 715 715 716 717 717 718 717 717 717 717 717 717 716 714 712 710 709 706 704 702 698 695 693 691 688 686 683 678 673 667 659 654 649 644 638 634 630 625 622 620 615 611 608 606 604 602 598 594 592 589 584 582 581 581 579 577 576 575 572 570 567 565 563 560 560 560 562 564 564 563 565 565 563 562 559
691 696 699 702 705 707 709 711 711 712 713 713 715 715 715 716 716 715 716 716 716 715 714 713 710 708 707 704 702 700 697 693 691 688 685 683 680 675 670 664 656 649 644 639 633 628 624 620 616 614 610 606 603 600 597 596 593 589 587 584 579 577 576 575 573 571 571 568 566 564 561 559 557 554 553 553 554 556 557 558 560 560 560 559 556
688 693 697 700 703 705 707 709 710 710 711 712 713 713 713 714 714 714 715 715 714 714 712 711 709 707 705 703 700 699 696 692 688 685 682 679 676 672 667 661 655 647 641 635 630 624 619 616 612 609 605 601 598 595 592 589 587 585 582 578 574 572 571 570 567 566 565 562 561 559 557 554 552 549 548 548 548 550 551 552 553 554 554 553 552
687 691 695 699 702 704 706 707 708 709 709 710 711 711 711 712 712 712 713 713 712 712 711 710 709 706 704 702 699 697 694 691 686 682 679 676 672 669 664 658 653 647 639 632 627 621 616 611 607 604 601 597 593 590 586 583 581 578 575 572 569 568 567 564 561 559 558 556 554 553 551 548 546 543 542 542 542 544 546 546 547 548 547 546 547
685 689 693 697 700 702 704 705 706 707 708 708 708 709 710 711 711 711 711 711 712 712 711 710 708 706 703 700 698 695 692 689 685 680 676 672 668 665 660 655 650 645 638 629 623 618 612 607 602 599 595 591 586 582 579 576 573 570 568 566 564 563 561 559 555 552 550 548 547 545 544 542 540 538 537 536 537 539 540 540 541 542 542 540 540
683 687 690 694 697 700 702 703 704 705 706 706 706 708 709 709 709 710 710 711 712 712 711 710 707 705 702 699 696 694 690 687 682 677 674 670 665 661 656 651 647 642 635 628 621 615 609 603 598 594 589 584 579 574 570 567 565 562 561 560 559 558 556 552 549 546 543 540 539 538 537 536 535 533 532 532 533 534 535 536 536 537 537 535 534
680 683 686 689 693 696 698 700 701 703 704 704 705 707 708 708 708 709 709 711 712 712 710 709 706 703 701 698 695 692 688 684 679 675 671 667 662 658 653 648 643 638 632 625 619 613 607 601 595 589 584 579 574 568 562 559 558 557 556 555 554 552 550 546 543 541 537 533 531 530 530 530 530 529 528 529 530 530 530 531 531 532 532 531 529
677 680 682 685 689 692 694 696 699 701 702 703 704 706 706 706 707 707 709 711 712 711 709 707 704 702 700 697 694 690 686 682 678 673 669 664 659 655 650 645 640 635 629 622 616 611 605 599 592 586 581 577 571 565 559 555 554 553 551 550 548 546 543 540 538 535 531 527 526 525 524 526 526 525 525 525 525 525 525 526 526 527 527 528 526
674 677 679 682 686 688 690 693 697 699 700 701 703 704 705 705 705 707 709 711 710 709 707 704 703 701 699 696 693 689 684 681 676 672 667 662 657 652 648 643 637 632 626 619 613 608 602 596 591 585 580 575 570 564 559 555 553 551 548 546 544 540 537 533 530 528 526 523 521 520 520 522 522 520 520 520 520 520 521 522 522 522 523 524 522
672 675 677 680 682 685 688 691 694 697 698 699 701 703 703 704 704 706 708 709 709 708 705 703 702 700 698 695 691 687 683 679 675 671 666 662 657 652 647 642 636 630 624 618 612 607 601 595 590 584 579 574 568 563 560 556 554 551 548 545 542 538 533 528 523 521 520 518 517 516 516 517 517 515 515 515 515 514 515 516 517 517 519 520 518
671 674 676 678 679 682 686 689 691 694 695 697 699 701 701 702 703 705 706 707 707 706 704 702 700 699 697 694 690 685 681 677 674 671 667 663 659 654 649 644 637 631 625 619 613 607 600 595 590 585 580 575 569 565 562 558 554 551 547 544 540 536 532 527 521 517 515 513 512 512 512 513 512 510 510 510 509 509 509 511 512 514 515 515 512
672 674 675 675 677 680 684 687 689 691 693 695 697 699 699 700 701 703 704 705 705 704 703 701 699 697 696 693 690 686 682 677 674 671 667 663 660 655 651 645 639 632 626 620 613 608 602 597 592 587 583 578 573 569 565 561 556 551 547 543 540 537 533 529 524 520 515 512 509 507 507 508 507 505 505 505 504 504 505 506 508 510 510 508 504
670 672 673 673 675 678 681 684 686 688 690 693 695 697 698 699 701 702 703 703 703 702 701 700 698 696 694 691 688 685 682 678 674 670 667 663 659 655 651 645 639 633 627 620 614 609 604 599 594 590 586 581 577 573 568 563 558 553 548 543 541 538 535 531 527 523 519 514 510 506 503 502 501 500 499 499 500 500 500 501 503 503 501 499 496
665 668 670 670 672 676 678 681 684 686 688 690 693 693 694 696 699 701 702 702 701 700 699 698 696 694 692 689 686 683 680 676 673 670 667 664 660 656 651 645 640 634 627 621 615 611 607 602 597 593 589 584 579 575 570 565 561 556 550 545 541 538 535 531 527 524 520 515 510 506 501 498 495 494 494 494 494 495 495 495 495 493 491 489 488
661 664 666 668 670 673 676 679 681 683 686 689 691 691 692 695 697 698 698 698 699 698 698 696 693 690 688 686 684 682 678 675 673 670 667 664 660 656 651 646 641 636 629 622 618 614 610 605 600 596 591 587 582 577 572 567 562 557 553 548 543 538 535 531 527 523 518 514 510 506 501 497 492 489 488 487 487 487 487 486 485 484 483 481 479
660 662 664 665 668 671 674 677 679 681 684 687 688 689 692 695 697 698 698 697 697 696 694 692 690 687 686 684 683 681 678 675 673 671 668 665 661 656 651 645 641 636 630 626 622 617 612 608 603 598 594 589 584 579 573 568 563 558 553 549 543 538 533 529 525 520 515 512 508 504 500 495 490 485 481 479 478 478 477 476 476 475 474 472 471
660 662 664 664 666 669 672 675 677 680 683 686 687 688 692 695 697 698 699 699 699 696 694 691 689 687 686 684 683 680 678 676 673 671 669 666 661 656 650 644 640 635 630 627 624 620 615 611 606 601 596 591 585 580 575 569 563 558 553 547 541 536 531 526 522 518 514 510 506 502 497 493 487 481 476 472 470 468 467 466 466 466 466 465 465
658 661 663 664 665 668 671 673 675 678 681 684 686 688 691 694 696 697 698 699 699 697 694 691 688 687 686 684 682 680 678 676 674 672 670 666 662 656 651 646 642 638 633 629 626 622 618 614 609 603 598 592 587 581 576 570 564 558 553 547 541 535 530 525 521 517 513 509 505 501 496 491 485 479 472 465 461 460 458 458 458 459 459 459 459
655 658 660 661 663 666 669 671 674 677 679 682 684 687 690 692 694 695 697 698 697 695 693 690 688 686 685 684 681 679 678 676 675 673 670 666 662 657 653 650 646 642 637 633 629 624 620 615 610 605 599 593 587 581 576 570 564 558 553 547 541 535 530 526 523 519 514 509 504 499 493 487 481 476 468 460 455 454 453 452 453 454 454 454 455
653 655 657 659 661 664 666 669 672 675 678 680 683 686 688 690 692 694 695 696 695 693 691 689 688 688 687 685 683 681 679 677 675 673 670 666 663 659 656 652 648 644 640 636 632 627 622 617 611 606 600 594 588 582 576 570 564 558 552 545 539 534 530 526 522 517 513 507 501 496 490 484 479 474 468 459 452 450 449 449 449 451 451 451 451
653 655 657 658 660 662 664 667 670 673 676 679 682 684 686 688 691 693 693 693 692 691 689 689 688 688 688 686 684 682 681 679 677 675 672 668 664 661 657 653 649 646 642 638 633 628 623 618 612 606 600 594 589 583 576 570 563 557 550 543 537 532 527 523 518 514 509 504 498 493 489 484 479 475 468 459 451 447 447 447 448 449 450 449 449
650 654 656 658 659 661 663 665 668 672 675 678 680 682 685 687 690 691 691 691 690 689 688 688 688 688 687 686 685 684 682 680 679 677 673 669 665 661 658 654 651 647 643 639 634 629 624 619 613 607 601 595 589 583 576 570 563 557 550 543 537 531 526 521 516 511 506 502 497 493 490 486 481 476 468 459 451 446 445 445 446 447 448 448 447
647 651 654 656 658 659 661 664 668 672 674 676 678 680 684 687 688 689 689 688 688 687 687 687 687 687 686 685 685 685 683 681 679 677 674 670 665 661 658 655 652 648 644 640 635 630 625 620 614 608 602 596 590 584 577 570 564 558 550 543 537 531 525 519 515 510 506 501 498 494 491 487 483 477 469 460 452 447 444 444 445 446 447 448 447
644 647 651 654 656 657 660 664 668 671 672 674 677 680 683 685 686 687 687 687 686 686 686 686 686 685 685 684 684 683 682 680 679 676 673 669 665 662 658 655 652 648 644 640 636 631 626 621 615 609 603 597 591 585 578 572 566 559 552 544 537 531 525 520 515 510 507 503 499 495 491 487 483 476 469 461 454 447 444 443 444 445 447 448 448
643 646 649 651 653 656 660 664 667 669 670 673 677 680 682 684 685 685 685 685 685 685 684 685 685 684 683 683 683 682 681 680 678 675 672 669 665 662 659 656 652 648 644 640 636 632 627 622 617 611 605 598 593 587 580 573 567 561 554 546 540 535 529 523 517 512 508 504 500 495 490 485 480 473 466 459 452 448 444 444 444 445 447 448 449
643 646 648 650 653 656 660 663 665 667 669 673 677 679 681 683 683 684 684 684 684 684 684 684 683 683 682 682 682 681 680 679 677 675 672 668 665 662 659 656 652 648 643 639 635 631 627 623 617 611 605 599 593 587 581 575 570 565 557 549 543 538 533 527 522 516 511 505 500 494 487 480 473 467 460 455 451 448 446 445 446 446 446 447 449
642 644 646 649 652 656 659 661 663 666 669 673 676 678 680 681 682 682 683 683 683 683 683 683 682 682 682 682 682 681 680 679 676 674 671 668 665 663 660 656 653 648 644 639 635 631 627 623 618 611 605 599 593 587 581 576 572 568 561 554 548 543 538 532 527 521 515 508 501 493 484 475 467 461 456 453 451 450 448 447 447 447 446 447 448
642 643 645 648 651 654 657 659 663 666 670 673 675 677 679 680 681 681 682 682 682 682 682 682 682 682 682 682 681 681 680 678 676 673 670 667 665 663 660 657 653 649 644 640 635 631 627 624 619 613 607 601 594 587 581 576 573 569 564 558 552 547 542 536 529 522 515 508 500 491 481 472 465 459 456 454 453 451 449 448 447 447 447 447 448
642 644 646 647 649 652 655 659 663 666 669 671 674 676 677 679 679 680 680 681 681 681 681 681 682 681 681 682 681 680 679 677 675 672 669 667 665 663 660 657 653 649 645 640 636 632 628 624 619 615 609 603 596 589 583 578 575 571 565 559 554 549 543 537 529 521 514 506 497 488 480 473 467 462 459 457 455 451 448 446 446 446 447 447 449
643 644 645 646 648 651 655 659 663 666 668 670 673 675 676 677 678 679 679 680 680 680 681 681 681 681 681 681 681 680 678 676 673 671 669 666 664 662 660 656 653 649 645 641 637 632 628 624 620 616 610 604 598 592 585 580 577 573 567 561 556 550 543 536 528 520 512 503 495 488 482 476 471 467 463 460 457 453 449 446 445 446 447 448 450
642 643 644 646 648 651 655 659 662 664 667 670 672 674 675 676 677 677 678 679 679 679 680 680 680 680 681 681 680 679 677 675 672 670 668 666 664 662 659 656 653 649 646 642 638 633 629 625 621 616 611 606 600 594 588 583 580 575 569 564 558 552 544 536 529 521 512 504 497 491 485 480 476 472 468 464 459 455 451 448 446 447 447 449 451
641 641 643 646 649 652 655 658 661 664 667 669 671 673 674 675 676 677 677 678 678 678 679 679 679 680 680 680 680 678 676 674 672 669 667 666 664 661 658 656 653 649 646 643 638 634 630 625 621 617 612 607 602 597 591 587 584 579 573 567 561 553 545 537 530 523 515 508 501 496 491 485 480 476 472 468 463 459 455 452 450 449 449 450 451
639 641 644 647 649 652 655 658 661 664 666 668 670 671 672 674 675 676 676 677 677 678 678 678 679 680 680 679 679 677 675 673 671 669 667 666 663 661 658 655 652 649 646 643 639 635 631 626 622 617 613 608 604 599 594 591 588 583 577 570 563 555 548 540 534 527 520 514 508 502 496 490 485 480 477 473 469 465 461 458 456 454 453 452 453